Location: Recife
(8.0585°S, 34.8848°W)
Time: 12:48:40
(UTC-03:00)

Injun/Solrad 3 - Pass Details

Date: 14 April 2026
Orbit: 868 x 988 km, 66.8° (Epoch: 12 May)

Event Time Altitude Azimuth Distance (km) Brightness Sun altitude
Rises 20:42:54 0° 217° (SW) 3,457 - -51.2°
Reaches altitude 10° 20:45:35 10° 226° (SW) 2,514 - -51.9°
Maximum altitude 20:50:44 33° 288° (WNW) 1,412 - -53.2°
Drops below altitude 10° 20:55:54 10° 352° (N) 2,520 - -54.5°
Sets 20:58:37 0° 1° (N) 3,467 - -55.1°
